Regional Weather Roundup
Issued by NWS State College, PA

Home | Current Version | Previous Version | Graphics & Text | Print | Product List | Glossary Off
Versions: 1 2 3 4 5 6 7 8 9 10 11 12 13 14 15 16 17 18 19 20 21 22 23 24 25 26 27 28 29 30 31 32 33 34 35 36 37 38 39 40 41 42 43 44 45 46 47 48 49 50

000
ASUS41 KCTP 221810
RWRCTP

REGIONAL WEATHER ROUNDUP
NATIONAL WEATHER SERVICE STATE COLLEGE PA
200 PM EDT SUN OCT 22 2017

Note: "fair" indicates few or no clouds below 12,000 feet with no
significant weather and/or obstructions to visibility.

* = STATION THAT DOES NOT REPORT PRECIPITATION /E.G. RAIN...SNOW...ETC/
    THUNDER OR FOG.

PAZ002>004-007>009-013>016-020>023-029>032-221900-
WESTERN PENNSYLVANIA

CITY           SKY/WX    TMP DP  RH WIND       PRES   REMARKS
ERIE           SUNNY     77  52  41 S8        30.20F
MEADVILLE      SUNNY     73  53  49 VRB3      30.24F
FRANKLIN*      SUNNY     70  53  54 SE7       30.26F
NEW CASTLE     FAIR      75  52  44 VRB6      30.24F
BEAVER COUNTY  NOT AVBL
BUTLER*        SUNNY     72  53  51 SE5       30.26F
PITTSBURGH INT PTSUNNY   75  51  43 S7        30.25F
PITTSBURGH     SUNNY     74  47  38 VRB6      30.25F
INDIANA*       SUNNY     73  52  46 SE7       30.29F
LATROBE        SUNNY     75  50  41 CALM      30.27F
WASHINGTON CO* SUNNY     76  50  40 S12       30.27F
$$

PAZ004>006-010>012-017>019-024>028-033>037-041-042-045-046-049>053-221900-
CENTRAL PENNSYLVANIA

CITY           SKY/WX    TMP DP  RH WIND       PRES   REMARKS
BRADFORD       SUNNY     72  49  44 SE10G16   30.29F
DUBOIS         SUNNY     73  50  44 SE8       30.28F
CLEARFIELD     SUNNY     73  49  42 S12G18    30.29F
JOHNSTOWN      SUNNY     70  51  51 S12       30.30F
ALTOONA        SUNNY     73  51  46 S10G22    30.32F
STATE COLLEGE  NOT AVBL
WILLIAMSPORT   MOSUNNY   72  51  47 VRB6      30.32F
SELINSGROVE    SUNNY     73  53  49 S9        30.33F
FT INDIANTOWN  SUNNY     74  45  35 SE7       30.34F
CAPITAL CITY   SUNNY     75  51  43 E10       30.33F
HARRISBURG     MOSUNNY   75  52  44 SE5       30.33F
YORK           SUNNY     73  52  47 VRB6      30.34F
$$

PAZ038>040-043-044-047-048-054-055-060>062-067>071-221900-
EASTERN PENNSYLVANIA

CITY           SKY/WX    TMP DP  RH WIND       PRES   REMARKS
SCRANTON       SUNNY     77  41  27 S12G17    30.33F
MOUNT POCONO   SUNNY     68  42  38 VRB6      30.38F
ALLENTOWN      SUNNY     75  43  31 S6        30.36F
QUAKERTOWN*    CLEAR     73  46  38 SW7       30.38F
READING        SUNNY     76  48  37 S9        30.34F
LANCASTER      SUNNY     74  45  35 SE8       30.35F
COATESVILLE    CLEAR     72  43  35 SE8       30.38F
POTTSTOWN      SUNNY     72  47  40 VRB7      30.38F
BLUE BELL      SUNNY     72  46  40 S6        30.38F
DOYLESTOWN     SUNNY     73  44  35 SE6       30.36F
WILLOW GROVE   NOT AVBL
NORTH PHILA    SUNNY     75  49  39 VRB3      30.39F
PHILADELPHIA   PTSUNNY   75  46  35 SE5       30.37F
$$




USA.gov is the U.S. government's official web portal to all federal, state and local government web resources and services.